Powrót do katalogu

STARLINK-30978

AktywnyŁącznośćVLEO
NORAD 58490·PAYLOAD·🇺🇸 United States

Wystrzelony Dec 3, 2023 z Cape Canaveral Space Force Station

Loading…

Następne Przeloty (najbliższe 24 godziny)

TLE

ŚwieżeSource: CelesTrak SupGP

Epoka: Sep 15, 2026, 02:26 UTC

1 58490C 23186T   26258.10187500 -.00006813  00000+0 -24686-3 0  2587
2 58490  43.0026  73.8709 0002026 265.9712 150.6369 15.27568512    12

Śledź STARLINK-30978 w czasie rzeczywistym z AllMySat

Download on the App Store